STARLINK-3764, 52280

Orbit data source: Space-Track

STARLINK-3764, 52280 is a payload satellite owned by SpaceX/Seattle (US) in LEO that was launched on Thu, 21 Apr 2022 UTC via an FALCON 9 launch vehicle from the Air Force Eastern Test Range (AFETR). Payload-class satellites include a variety of spacecraft equipped with specific instruments for various scientific and technological missions. These include communications satellites like Starlink; space stations such as the ISS; scientific satellites like the Hubble; Earth observation satellites from companies like Planet Labs, Umbra, and HawkEye 360; GPS; miniature CubeSats for education and research; and military/defense satellites.

Loading next visibility...
Identifier
52280, 2022-041V
Orbit
LEO
Country
Flag of USUS
Related business
Manufacturer
SpaceX/Seattle
Mission
Operational Commercial Communications
Bus & Motor
STARLINK, Unknown motor
Mass
297 kg wet, ~275 kg dry
Launch date (UTC)
2022-04-21 (4 years ago)
Launch vehicle
FALCON 9
Launch site
Air Force Eastern Test Range (AFETR)
Object type
Payload
Rocket body
Debris
Shape & HBR
Box + 1 Pan, 10.1 m
Radar Cross Section
11.087 m², Large (>1 m²)

Expand to show TLE details & history
Last TLE update: 5 hours ago

TLE from 5 hours ago
0 STARLINK-3764
1 52280U 22041V   26193.16668980  .00049432  00000-0  15952-2 0  9997
2 52280  53.1592 268.5046 0001257  88.3790 243.9268 15.31677977  5782
Epoch: 2026-07-12T04:00Z
TLE epoch observation values (Epoch: 2026-07-12T04:00:01.998Z)
Latitude
-22.03415°
Longitude
-99.12345°
Altitude
477.418 km
Speed
7.627 km/s
True Right ascension
16h 43m 49s
True Declination
-21° 54' 36"
Sunlit
Object was in full shadow at epoch
Visualization orbit readout
Latitude
Unknown
Longitude
Unknown
Altitude
Unknown
Speed
Unknown
Apparent Right ascension
Unknown
Apparent Declination
Unknown
Sunlit
N/A
Visualization observer readout
Local Sidereal Time
21:17:10
Azimuth
Unknown
Elevation
Unknown
Doppler factor
Unknown
Orbital elements
Apogee altitude
471.923 km
Perigee altitude
470.201 km
Semi-major axis
6,849.199 km
Eccentricity
0.00013
Inclination
53.1592°
RAAN
268.5046°
Arg. of periapsis
88.379°
True anomaly
243.91386°
Mean anomaly
243.9268°
Eccentric anomaly
243.92033°
Mean motion
3.82898 °/min
Orbital period
94.02 mins
BSTAR
0.0015952
Loading maneuver chart data...
Computing Atmospheric mass density...
Loading historical data...
Loading historical data...
Loading historical data...
Loading historical data...
Loading historical data...
Loading historical data...
Loading historical data...

Documentation

Showing up to 5 results
|